This demonstration page uses our WeatherBlox Daily Observations layout. Learn more.

Left ArrowRight Arrow

53.62937, 11.41316

Hourly Observations for August 20, 2021

Temp ( °F °C ) Dew Point ( °F °C ) Humidity (%) Winds ( mph kmh ) Pressure ( in mb ) Visibility ( mi km ) Precip ( " mm )
7:20 am 07:20 Mostly Sunny 57 14 57 14 100 100 VRB 1 2 29.91 1013 7 11 N/A
7:50 am 07:50 Mostly Sunny 57 14 57 14 100 100 VRB 2 4 29.91 1013 30 48 N/A
8:20 am 08:20 Partly Cloudy with Light Rain 57 14 57 14 100 100 S 3 6 29.94 1014 30 48 N/A
8:50 am 08:50 Partly Cloudy with Light Rain 59 15 57 14 94 94 S 5 7 29.94 1014 30 48 N/A
9:20 am 09:20 Mostly Cloudy 59 15 57 14 94 94 S 6 9 29.94 1014 30 48 N/A
9:50 am 09:50 Mostly Cloudy 59 15 57 14 94 94 S 7 11 29.94 1014 30 48 N/A
10:20 am 10:20 Partly Cloudy 61 16 55 13 83 83 S 7 11 29.94 1014 30 48 N/A
10:50 am 10:50 Mostly Cloudy 63 17 55 13 77 77 SSE 6 9 29.94 1014 30 48 N/A
11:20 am 11:20 Mostly Cloudy 63 17 55 13 77 77 S 7 11 29.94 1014 30 48 N/A
11:50 am 11:50 Partly Cloudy 63 17 55 13 77 77 SSE 7 11 29.94 1014 30 48 N/A
12:20 pm 12:20 Partly Cloudy 64 18 57 14 78 78 S 6 9 29.94 1014 30 48 N/A
12:50 pm 12:50 Mostly Cloudy 64 18 57 14 78 78 S 7 11 29.94 1014 30 48 N/A
1:20 pm 13:20 Mostly Cloudy 64 18 57 14 78 78 S 6 9 29.97 1015 30 48 N/A
1:50 pm 13:50 Mostly Cloudy 63 17 59 15 88 88 S 10 17 29.97 1015 30 48 N/A
2:20 pm 14:20 Partly Cloudy 64 18 57 14 78 78 S 7 11 29.94 1014 30 48 N/A
2:50 pm 14:50 Mostly Cloudy 64 18 59 15 83 83 S 7 11 29.94 1014 30 48 N/A
3:20 pm 15:20 Partly Cloudy 66 19 59 15 78 78 S 7 11 29.94 1014 30 48 N/A
3:50 pm 15:50 Partly Cloudy 68 20 59 15 73 73 SW 9 15 29.94 1014 30 48 N/A
4:20 pm 16:20 Mostly Cloudy 66 19 57 14 73 73 VRB 7 11 29.97 1015 30 48 N/A
4:50 pm 16:50 Partly Cloudy 66 19 57 14 73 73 WSW 7 11 29.97 1015 30 48 N/A
5:20 pm 17:20 Partly Cloudy 66 19 57 14 73 73 WSW 6 9 29.97 1015 30 48 N/A
5:50 pm 17:50 Partly Cloudy 66 19 55 13 68 68 VRB 6 9 29.97 1015 30 48 N/A
6:20 pm 18:20 Partly Cloudy 66 19 57 14 73 73 W 3 6 29.97 1015 30 48 N/A
6:50 pm 18:50 Mostly Sunny 64 18 55 13 73 73 VRB 2 4 30.00 1016 30 48 N/A
7:20 pm 19:20 Mostly Sunny 64 18 57 14 78 78 VRB 2 4 30.00 1016 30 48 N/A
7:50 pm 19:50 Mostly Sunny 64 18 57 14 78 78 VRB 2 4 30.00 1016 30 48 N/A
8:20 pm 20:20 Mostly Sunny 63 17 55 13 77 77 VRB 1 2 30.00 1016 30 48 N/A
8:50 pm 20:50 Mostly Clear 61 16 57 14 88 88 N N/A 30.00 1016 30 48 N/A
9:20 pm 21:20 Mostly Clear 59 15 57 14 94 94 VRB 1 2 30.03 1017 30 48 N/A
9:50 pm 21:50 Partly Cloudy 57 14 55 13 94 94 VRB 1 2 30.03 1017 30 48 N/A

Powered by AerisWeather